Hourly Data Report for November 22, 2003

TORONTO CITY
ONTARIO

43°40'00.000" N
79°24'00.000" W
112.50 m
6158355
71508
XTO

Download Data

Hourly Data (November 2003)
Hourly Data Report for November 22, 2003
TIME
LST
Temp Definition
°C
Dew Point Definition
°C
Rel Hum Definition
%
Precip. Amount Definition
mm

Wind Dir Definition
10's deg

Wind Spd Definition
km/h
Visibility Definition
km
Stn Press Definition
kPa
Hmdx Definition


Wind Chill Definition


Weather Definition


00:00 5.1 1.6 78   LegendMM LegendMM LegendMM 100.72     LegendNANA
01:00 4.6 0.9 77   LegendMM LegendMM LegendMM 100.72     LegendNANA
02:00 4.5 -0.6 69   LegendMM LegendMM LegendMM 100.74     LegendNANA
03:00 4.6 -0.9 67   LegendMM LegendMM LegendMM 100.74     LegendNANA
04:00 5.1 0.1 70   LegendMM LegendMM LegendMM 100.69     LegendNANA
05:00 5.2 0.2 70   LegendMM LegendMM LegendMM 100.65     LegendNANA
06:00 5.0 1.3 77   LegendMM LegendMM LegendMM 100.68     LegendNANA
07:00 5.5 2.5 81   LegendMM LegendMM LegendMM 100.66     LegendNANA
08:00 5.8 3.3 84   LegendMM LegendMM LegendMM 100.66     LegendNANA
09:00 5.9 3.7 86   LegendMM LegendMM LegendMM 100.60     LegendNANA
10:00 6.4 4.1 85   LegendMM LegendMM LegendMM 100.62     LegendNANA
11:00 6.5 4.5 87   LegendMM LegendMM LegendMM 100.59     LegendNANA
12:00 6.3 4.6 89   LegendMM LegendMM LegendMM 100.52     LegendNANA
13:00 6.4 4.7 89   LegendMM LegendMM LegendMM 100.43     LegendNANA
14:00 6.6 4.8 88   LegendMM LegendMM LegendMM 100.42     LegendNANA
15:00 6.6 4.8 88   LegendMM LegendMM LegendMM 100.40     LegendNANA
16:00 6.4 5.4 93   LegendMM LegendMM LegendMM 100.41     LegendNANA
17:00 6.6 5.9 95   LegendMM LegendMM LegendMM 100.43     LegendNANA
18:00 7.1 6.1 93   LegendMM LegendMM LegendMM 100.47     LegendNANA
19:00 7.5 5.7 88   LegendMM LegendMM LegendMM 100.51     LegendNANA
20:00 7.9 4.5 79   LegendMM LegendMM LegendMM 100.54     LegendNANA
21:00 7.5 3.4 75   LegendMM LegendMM LegendMM 100.54     LegendNANA
22:00 6.9 2.2 72   LegendMM LegendMM LegendMM 100.56     LegendNANA
23:00 6.4 1.7 72   LegendMM LegendMM LegendMM 100.57     LegendNANA

Notes on Data Quality.

Legend

  • E = Estimated
  • M = Missing
  • NA = Not Available*
  • [empty] = Indicates an unobserved value
Date modified: